| time (UTC) | temp F | wind direction | speed MPH | gust MPH | rain 1hr in | rain 24hr in | rain mn in | humidity % | barometer mb |
| 20260510151456 | 56 | 66 | 7.0 | 9.0 | 0.00 | 0.00 | 0.00 | 65 | 1015.9 |
| 20260510150952 | 56 | 48 | 3.0 | 7.0 | 0.00 | 0.00 | 0.00 | 65 | 1016.0 |
| 20260510150450 | 55 | 48 | 5.0 | 7.0 | 0.00 | 0.00 | 0.00 | 64 | 1016.1 |
| 20260510145950 | 55 | 51 | 10.0 | 10.0 | 0.00 | 0.00 | 0.00 | 64 | 1016.1 |
| 20260510145452 | 56 | 51 | 10.0 | 10.0 | 0.00 | 0.00 | 0.00 | 64 | 1016.1 |
| 20260510144946 | 55 | 80 | 6.0 | 9.0 | 0.00 | 0.00 | 0.00 | 64 | 1016.1 |
| 20260510144449 | 55 | 56 | 6.0 | 10.0 | 0.00 | 0.00 | 0.00 | 64 | 1016.1 |
| 20260510143940 | 0 | 56 | 6.0 | 10.0 | 0.00 | 0.00 | 0.00 | 1016.2 | |
| 20260510143435 | 55 | 49 | 6.0 | 9.0 | 0.00 | 0.00 | 0.00 | 68 | 1016.3 |
| 20260510142935 | 55 | 52 | 7.0 | 9.0 | 0.00 | 0.00 | 0.00 | 68 | 1016.4 |
| 20260510142432 | 0 | 58 | 6.0 | 10.0 | 0.00 | 0.00 | 0.00 | 1016.4 | |
| 20260510142107 | 54 | 51 | 6.0 | 15.0 | 0.00 | 0.00 | 0.00 | 68 | 1016.6 |
| 20260510142019 | 54 | 71 | 10.0 | 10.0 | 0.00 | 0.00 | 0.00 | 68 | 1016.4 |
| 20260510140932 | 54 | 73 | 9.0 | 15.0 | 0.00 | 0.00 | 0.00 | 68 | 1016.6 |
| 20260510140430 | 54 | 63 | 10.0 | 14.0 | 0.00 | 0.00 | 0.00 | 68 | 1016.5 |
| 20260510140327 | 0 | 42 | 6.0 | 10.0 | 0.00 | 0.00 | 0.00 | 1016.6 | |
| 20260510135424 | 53 | 72 | 7.0 | 12.0 | 0.00 | 0.00 | 0.00 | 69 | 1016.7 |
| 20260510135053 | 53 | 20 | 10.0 | 16.0 | 0.00 | 0.00 | 0.00 | 69 | 1016.7 |
| 20260510134958 | 53 | 48 | 10.0 | 16.0 | 0.00 | 0.00 | 0.00 | 69 | 1016.6 |
| 20260510133902 | 54 | 0 | 10.0 | 15.0 | 0.00 | 0.00 | 0.00 | 68 | 1016.8 |
| 20260510133403 | 54 | 47 | 8.0 | 13.0 | 0.00 | 0.00 | 0.00 | 68 | 1016.8 |
| 20260510133232 | 54 | 69 | 13.0 | 13.0 | 0.00 | 0.00 | 0.00 | 68 | 1016.8 |
| 20260510132358 | 54 | 47 | 6.0 | 7.0 | 0.00 | 0.00 | 0.00 | 68 | 1016.8 |
| 20260510132046 | 54 | 42 | 6.0 | 11.0 | 0.00 | 0.00 | 0.00 | 69 | 1016.8 |
| 20260510131950 | 0 | 42 | 6.0 | 9.0 | 0.00 | 0.00 | 0.00 | 1016.9 | |
| 20260510130855 | 54 | 65 | 11.0 | 11.0 | 0.00 | 0.00 | 0.00 | 69 | 1016.9 |
| 20260510130357 | 54 | 65 | 6.0 | 11.0 | 0.00 | 0.00 | 0.00 | 71 | 1016.9 |
| 20260510125851 | 54 | 66 | 8.0 | 11.0 | 0.00 | 0.00 | 0.00 | 71 | 1017.0 |
| 20260510125350 | 54 | 24 | 10.0 | 11.0 | 0.00 | 0.00 | 0.00 | 70 | 1016.9 |
| 20260510124849 | 54 | 44 | 8.0 | 12.0 | 0.00 | 0.00 | 0.00 | 71 | 1017.1 |
| 20260510124352 | 54 | 66 | 5.0 | 12.0 | 0.00 | 0.00 | 0.00 | 71 | 1017.2 |
| 20260510123853 | 54 | 51 | 8.0 | 9.0 | 0.00 | 0.00 | 0.00 | 71 | 1017.2 |
| 20260510123351 | 54 | 59 | 6.0 | 6.0 | 0.00 | 0.00 | 0.00 | 71 | 1017.1 |
| 20260510123217 | 54 | 63 | 6.0 | 7.0 | 0.00 | 0.00 | 0.00 | 72 | 1017.1 |
| 20260510122348 | 53 | 63 | 6.0 | 10.0 | 0.00 | 0.00 | 0.00 | 72 | 1017.2 |
| 20260510121848 | 53 | 58 | 9.0 | 13.0 | 0.00 | 0.00 | 0.00 | 72 | 1017.2 |
| 20260510121344 | 53 | 61 | 9.0 | 18.0 | 0.00 | 0.00 | 0.00 | 72 | 1017.3 |
| 20260510120844 | 54 | 62 | 11.0 | 18.0 | 0.00 | 0.00 | 0.00 | 71 | 1017.4 |
| 20260510120344 | 54 | 49 | 11.0 | 18.0 | 0.00 | 0.00 | 0.00 | 71 | 1017.5 |
| 20260510115845 | 55 | 49 | 12.0 | 13.0 | 0.00 | 0.00 | 0.00 | 72 | 1017.4 |
| 20260510115344 | 55 | 44 | 6.0 | 6.0 | 0.00 | 0.00 | 0.00 | 72 | 1017.5 |
| 20260510114842 | 55 | 63 | 5.0 | 12.0 | 0.00 | 0.00 | 0.00 | 72 | 1017.6 |
| 20260510114347 | 55 | 63 | 8.0 | 12.0 | 0.00 | 0.00 | 0.00 | 72 | 1017.6 |
| 20260510114201 | 55 | 49 | 4.0 | 11.0 | 0.00 | 0.00 | 0.00 | 72 | 1017.7 |
| 20260510113345 | 55 | 42 | 9.0 | 11.0 | 0.00 | 0.00 | 0.00 | 72 | 1017.7 |
| 20260510112845 | 55 | 24 | 11.0 | 15.0 | 0.00 | 0.00 | 0.00 | 75 | 1017.7 |
| 20260510112347 | 55 | 24 | 11.0 | 15.0 | 0.00 | 0.00 | 0.00 | 75 | 1017.7 |
| 20260510111845 | 55 | 44 | 10.0 | 10.0 | 0.00 | 0.00 | 0.00 | 75 | 1017.8 |
| 20260510111343 | 55 | 0.0 | 0.0 | 0.00 | 0.00 | 0.00 | 77 | 1017.8 | |
| 20260510110844 | 54 | 62 | 9.0 | 9.0 | 0.00 | 0.00 | 0.00 | 77 | 1017.8 |
| 20260510110343 | 54 | 62 | 9.0 | 9.0 | 0.00 | 0.00 | 0.00 | 77 | 1017.9 |
| 20260510105843 | 54 | 54 | 6.0 | 13.0 | 0.00 | 0.00 | 0.00 | 77 | 1018.0 |
| 20260510105342 | 0 | 51 | 13.0 | 13.0 | 0.00 | 0.00 | 0.00 | 1018.0 | |
| 20260510104842 | 53 | 37 | 5.0 | 12.0 | 0.00 | 0.00 | 0.00 | 78 | 1018.1 |
| 20260510104343 | 53 | 55 | 7.0 | 17.0 | 0.00 | 0.00 | 0.00 | 78 | 1018.0 |
| 20260510103841 | 52 | 44 | 9.0 | 17.0 | 0.00 | 0.75 | 0.00 | 78 | 1018.1 |
| 20260510103339 | 52 | 71 | 10.0 | 15.0 | 0.00 | 1.01 | 0.00 | 79 | 1018.0 |
| 20260510102838 | 52 | 52 | 9.0 | 16.0 | 0.00 | 1.01 | 0.00 | 79 | 1018.1 |
| 20260510102340 | 52 | 52 | 7.0 | 16.0 | 0.00 | 1.01 | 0.00 | 79 | 1018.2 |
| 20260510101835 | 52 | 24 | 11.0 | 18.0 | 0.00 | 1.01 | 0.00 | 79 | 1018.1 |
| 20260510101333 | 52 | 68 | 9.0 | 18.0 | 0.00 | 1.01 | 0.00 | 79 | 1018.1 |
| 20260510100833 | 52 | 55 | 8.0 | 18.0 | 0.00 | 1.01 | 0.00 | 79 | 1018.1 |
| 20260510100334 | 52 | 55 | 11.0 | 18.0 | 0.00 | 1.01 | 0.00 | 79 | 1018.2 |
| 20260510095930 | 52 | 58 | 8.0 | 17.0 | 0.00 | 1.01 | 0.00 | 80 | 1018.1 |
| 20260510095915 | 52 | 21 | 7.0 | 19.0 | 0.00 | 1.01 | 0.00 | 80 | 1018.0 |
| 20260510094834 | 52 | 62 | 7.0 | 18.0 | 0.00 | 1.01 | 0.00 | 80 | 1018.1 |
| 20260510094338 | 52 | 47 | 8.0 | 18.0 | 0.00 | 1.01 | 0.00 | 80 | 1018.1 |
| 20260510093835 | 52 | 48 | 9.0 | 18.0 | 0.00 | 1.01 | 0.00 | 80 | 1018.2 |
| 20260510093335 | 52 | 20 | 6.0 | 13.0 | 0.00 | 1.01 | 0.00 | 80 | 1018.2 |
| 20260510092834 | 52 | 48 | 6.0 | 16.0 | 0.00 | 1.01 | 0.00 | 80 | 1018.2 |
| 20260510092330 | 52 | 45 | 10.0 | 16.0 | 0.00 | 1.01 | 0.00 | 79 | 1018.2 |
| 20260510091832 | 52 | 48 | 6.0 | 14.0 | 0.00 | 1.01 | 0.00 | 82 | 1018.2 |
| 20260510091334 | 52 | 75 | 5.0 | 13.0 | 0.00 | 1.01 | 0.00 | 83 | 1018.2 |
| 20260510090831 | 52 | 62 | 6.0 | 14.0 | 0.00 | 1.01 | 0.00 | 83 | 1018.3 |
| 20260510090329 | 51 | 0 | 8.0 | 18.0 | 0.00 | 1.01 | 0.00 | 83 | 1018.4 |
| 20260510085830 | 51 | 54 | 7.0 | 18.0 | 0.00 | 1.01 | 0.00 | 84 | 1018.4 |
| 20260510085328 | 51 | 61 | 6.0 | 17.0 | 0.00 | 1.01 | 0.00 | 83 | 1018.4 |
| 20260510084826 | 51 | 83 | 9.0 | 16.0 | 0.00 | 1.01 | 0.00 | 84 | 1018.5 |
| 20260510084327 | 51 | 0 | 6.0 | 13.0 | 0.00 | 1.01 | 0.00 | 84 | 1018.5 |
| 20260510083827 | 51 | 17 | 5.0 | 12.0 | 0.00 | 1.01 | 0.00 | 84 | 1018.5 |
| 20260510083326 | 51 | 56 | 7.0 | 19.0 | 0.00 | 1.01 | 0.00 | 85 | 1018.4 |
| 20260510083206 | 50 | 42 | 9.0 | 19.0 | 0.00 | 1.01 | 0.00 | 85 | 1018.5 |
| 20260510082326 | 50 | 72 | 7.0 | 15.0 | 0.00 | 1.01 | 0.00 | 85 | 1018.5 |
| 20260510081827 | 50 | 68 | 6.0 | 17.0 | 0.00 | 1.01 | 0.00 | 85 | 1018.5 |
| 20260510081327 | 50 | 42 | 7.0 | 17.0 | 0.00 | 1.01 | 0.00 | 85 | 1018.5 |
| 20260510080827 | 50 | 48 | 8.0 | 17.0 | 0.00 | 1.01 | 0.00 | 85 | 1018.6 |
| 20260510080634 | 50 | 78 | 5.0 | 12.0 | 0.00 | 1.01 | 0.00 | 85 | 1018.6 |
| 20260510075826 | 50 | 42 | 7.0 | 14.0 | 0.00 | 1.01 | 0.00 | 85 | 1018.6 |
| 20260510075628 | 50 | 55 | 6.0 | 16.0 | 0.00 | 1.01 | 0.00 | 85 | 1018.6 |
| 20260510074824 | 50 | 34 | 8.0 | 18.0 | 0.00 | 1.01 | 0.00 | 85 | 1018.6 |
| 20260510074323 | 50 | 47 | 5.0 | 18.0 | 0.00 | 1.01 | 0.00 | 85 | 1018.5 |
| 20260510073824 | 49 | 61 | 9.0 | 14.0 | 0.00 | 1.01 | 0.00 | 85 | 1018.6 |
| 20260510073325 | 49 | 0 | 5.0 | 17.0 | 0.00 | 1.01 | 0.00 | 85 | 1018.6 |
| 20260510073208 | 49 | 47 | 8.0 | 17.0 | 0.00 | 1.01 | 0.00 | 86 | 1018.6 |
| 20260510072325 | 49 | 35 | 8.0 | 18.0 | 0.00 | 1.01 | 0.00 | 86 | 1018.6 |
| 20260510071823 | 49 | 73 | 7.0 | 18.0 | 0.00 | 1.01 | 0.00 | 86 | 1018.6 |
| 20260510071323 | 49 | 13 | 9.0 | 16.0 | 0.00 | 1.01 | 0.00 | 86 | 1018.5 |
| 20260510070824 | 49 | 38 | 9.0 | 16.0 | 0.00 | 1.01 | 0.00 | 87 | 1018.5 |
| 20260510070323 | 49 | 30 | 8.0 | 15.0 | 0.00 | 1.01 | 0.00 | 87 | 1018.6 |
| 20260510065823 | 49 | 7 | 8.0 | 15.0 | 0.00 | 1.01 | 0.00 | 88 | 1018.3 |
| 20260510065324 | 49 | 44 | 6.0 | 15.0 | 0.00 | 1.01 | 0.00 | 88 | 1018.3 |
| 20260510065154 | 49 | 71 | 8.0 | 15.0 | 0.00 | 1.01 | 0.00 | 88 | 1018.3 |
| 20260510064448 | 49 | 45 | 4.0 | 15.0 | 0.00 | 1.01 | 0.00 | 89 | 1018.3 |
| 20260510064422 | 49 | 45 | 8.0 | 15.0 | 0.00 | 1.01 | 0.00 | 88 | 1018.4 |
| 20260510063322 | 48 | 47 | 6.0 | 13.0 | 0.00 | 1.01 | 0.00 | 89 | 1018.3 |
| 20260510062822 | 48 | 39 | 8.0 | 14.0 | 0.00 | 1.01 | 0.00 | 89 | 1018.3 |
| 20260510062628 | 48 | 49 | 7.0 | 18.0 | 0.00 | 1.01 | 0.00 | 89 | 1018.2 |
| 20260510062147 | 48 | 34 | 7.0 | 18.0 | 0.00 | 1.01 | 0.00 | 89 | 1018.1 |
| 20260510061621 | 48 | 79 | 7.0 | 15.0 | 0.00 | 1.01 | 0.00 | 89 | 1018.2 |
| 20260510060810 | 48 | 42 | 8.0 | 15.0 | 0.00 | 1.01 | 0.00 | 89 | 1018.1 |
| 20260510060614 | 48 | 58 | 7.0 | 17.0 | 0.00 | 1.01 | 0.00 | 89 | 1018.1 |
| 20260510055810 | 48 | 59 | 6.0 | 17.0 | 0.00 | 1.01 | 0.00 | 89 | 1018.1 |
| 20260510055309 | 48 | 54 | 7.0 | 16.0 | 0.00 | 1.01 | 0.00 | 90 | 1018.2 |
| 20260510054806 | 48 | 37 | 7.0 | 18.0 | 0.00 | 1.01 | 0.00 | 90 | 1018.2 |
| 20260510054306 | 47 | 61 | 8.0 | 18.0 | 0.00 | 1.01 | 0.00 | 90 | 1018.1 |
| 20260510053806 | 47 | 59 | 6.0 | 15.0 | 0.00 | 1.01 | 0.00 | 90 | 1018.2 |
| 20260510053305 | 47 | 24 | 6.0 | 15.0 | 0.00 | 1.01 | 0.00 | 90 | 1018.1 |
| 20260510052806 | 47 | 54 | 7.0 | 15.0 | 0.00 | 1.01 | 0.00 | 90 | 1018.1 |
| 20260510052608 | 47 | 65 | 8.0 | 14.0 | 0.00 | 1.01 | 0.00 | 90 | 1018.0 |
| 20260510051804 | 47 | 41 | 8.0 | 13.0 | 0.00 | 1.01 | 0.00 | 90 | 1018.2 |
| 20260510051307 | 47 | 65 | 6.0 | 11.0 | 0.00 | 1.01 | 0.00 | 90 | 1018.3 |
| 20260510051135 | 47 | 78 | 5.0 | 13.0 | 0.00 | 1.01 | 0.00 | 90 | 1018.2 |
| 20260510050610 | 47 | 49 | 6.0 | 13.0 | 0.00 | 1.01 | 0.00 | 90 | 1018.3 |
| 20260510045803 | 47 | 47 | 5.0 | 12.0 | 0.00 | 1.01 | 0.00 | 90 | 1018.4 |
| 20260510045306 | 47 | 48 | 6.0 | 13.0 | 0.00 | 1.01 | 0.00 | 90 | 1018.3 |
| 20260510045131 | 47 | 38 | 7.0 | 13.0 | 0.00 | 1.01 | 0.00 | 90 | 1018.2 |
| 20260510044304 | 47 | 45 | 5.0 | 14.0 | 0.00 | 1.01 | 0.00 | 90 | 1018.3 |
| 20260510043802 | 47 | 47 | 6.0 | 14.0 | 0.00 | 1.01 | 0.00 | 90 | 1018.2 |
| 20260510043302 | 47 | 82 | 4.0 | 10.0 | 0.00 | 1.01 | 0.00 | 89 | 1018.3 |
| 20260510042802 | 47 | 51 | 4.0 | 11.0 | 0.00 | 1.01 | 0.00 | 90 | 1018.3 |
| 20260510042306 | 47 | 49 | 4.0 | 11.0 | 0.00 | 1.01 | 0.00 | 90 | 1018.3 |
| 20260510041804 | 47 | 51 | 5.0 | 10.0 | 0.00 | 1.01 | 0.00 | 90 | 1018.3 |
| 20260510041301 | 47 | 34 | 4.0 | 13.0 | 0.00 | 1.01 | 0.00 | 89 | 1018.3 |
| 20260510040801 | 47 | 32 | 5.0 | 13.0 | 0.00 | 1.01 | 0.00 | 89 | 1018.2 |
| 20260510040605 | 47 | 62 | 6.0 | 12.0 | 0.00 | 1.01 | 0.00 | 89 | 1018.3 |
| 20260510040146 | 47 | 44 | 5.0 | 13.0 | 0.00 | 1.01 | 0.00 | 89 | 1018.3 |
| 20260510035306 | 47 | 42 | 6.0 | 13.0 | 0.00 | 1.01 | 0.00 | 89 | 1018.2 |
| 20260510034801 | 47 | 42 | 5.0 | 12.0 | 0.00 | 1.01 | 0.00 | 89 | 1018.4 |
| 20260510034304 | 47 | 54 | 5.0 | 14.0 | 0.00 | 1.01 | 0.00 | 90 | 1018.3 |
| 20260510033801 | 47 | 357 | 5.0 | 14.0 | 0.00 | 1.01 | 0.00 | 90 | 1018.4 |
| 20260510033301 | 47 | 38 | 6.0 | 14.0 | 0.00 | 1.01 | 0.00 | 90 | 1018.4 |
| 20260510032802 | 47 | 44 | 8.0 | 14.0 | 0.00 | 1.01 | 0.00 | 90 | 1018.4 |
| 20260510032306 | 47 | 21 | 6.0 | 15.0 | 0.00 | 1.01 | 0.00 | 90 | 1018.4 |
| 20260510031800 | 47 | 65 | 9.0 | 15.0 | 0.00 | 1.01 | 0.00 | 90 | 1018.5 |
| 20260510031303 | 47 | 51 | 8.0 | 15.0 | 0.00 | 1.01 | 0.00 | 90 | 1018.6 |
| 20260510030802 | 47 | 38 | 6.0 | 15.0 | 0.00 | 1.01 | 0.00 | 90 | 1018.7 |
| 20260510030601 | 47 | 20 | 6.0 | 13.0 | 0.00 | 1.01 | 0.00 | 90 | 1018.8 |
| 20260510025800 | 47 | 32 | 5.0 | 15.0 | 0.00 | 1.01 | 0.00 | 90 | 1018.7 |
| 20260510025306 | 47 | 72 | 5.0 | 15.0 | 0.00 | 1.01 | 0.00 | 89 | 1018.6 |
| 20260510025140 | 47 | 65 | 5.0 | 16.0 | 0.00 | 1.01 | 0.00 | 90 | 1018.6 |
| 20260510024811 | 47 | 78 | 5.0 | 16.0 | 0.00 | 1.01 | 0.00 | 89 | 1018.6 |
| 20260510023801 | 47 | 52 | 7.0 | 14.0 | 0.00 | 1.01 | 0.00 | 89 | 1018.6 |
| 20260510023301 | 47 | 35 | 6.0 | 11.0 | 0.00 | 1.01 | 0.00 | 89 | 1018.7 |
| 20260510022800 | 47 | 27 | 6.0 | 13.0 | 0.00 | 1.01 | 0.00 | 89 | 1018.8 |
| 20260510022300 | 47 | 55 | 7.0 | 13.0 | 0.00 | 1.01 | 0.00 | 89 | 1018.7 |
| 20260510021801 | 47 | 55 | 6.0 | 13.0 | 0.00 | 1.01 | 0.00 | 89 | 1018.8 |
| 20260510021350 | 48 | 45 | 5.0 | 15.0 | 0.00 | 1.01 | 0.00 | 89 | 1018.8 |
| 20260510021326 | 47 | 54 | 7.0 | 15.0 | 0.00 | 1.01 | 0.00 | 89 | 1018.8 |
| 20260510020301 | 48 | 23 | 6.0 | 12.0 | 0.00 | 1.01 | 0.00 | 89 | 1018.8 |
| 20260510015800 | 48 | 21 | 6.0 | 14.0 | 0.00 | 1.01 | 0.00 | 89 | 1018.9 |
| 20260510015306 | 48 | 39 | 5.0 | 15.0 | 0.00 | 1.01 | 0.00 | 89 | 1018.9 |
| 20260510015132 | 48 | 62 | 7.0 | 15.0 | 0.00 | 1.01 | 0.00 | 89 | 1018.9 |
| 20260510014300 | 48 | 1 | 6.0 | 14.0 | 0.00 | 1.01 | 0.00 | 89 | 1018.9 |
| 20260510013801 | 48 | 41 | 6.0 | 14.0 | 0.00 | 1.01 | 0.00 | 89 | 1018.8 |
| 20260510013302 | 48 | 38 | 4.0 | 14.0 | 0.00 | 1.01 | 0.00 | 89 | 1018.8 |
| 20260510012809 | 48 | 0 | 7.0 | 15.0 | 0.00 | 1.01 | 0.00 | 88 | 1018.8 |
| 20260510012306 | 48 | 42 | 5.0 | 15.0 | 0.00 | 1.01 | 0.00 | 88 | 1018.7 |
| 20260510011803 | 48 | 49 | 4.0 | 13.0 | 0.00 | 1.01 | 0.00 | 88 | 1018.8 |
| 20260510011302 | 48 | 38 | 5.0 | 13.0 | 0.00 | 1.01 | 0.00 | 88 | 1018.9 |
| 20260510010800 | 48 | 28 | 5.0 | 12.0 | 0.00 | 1.01 | 0.00 | 88 | 1018.8 |
| 20260510010300 | 48 | 55 | 4.0 | 12.0 | 0.00 | 1.01 | 0.00 | 88 | 1018.8 |
| 20260510005759 | 48 | 24 | 4.0 | 13.0 | 0.00 | 1.01 | 0.00 | 88 | 1018.7 |
| 20260510005306 | 48 | 62 | 8.0 | 13.0 | 0.00 | 1.01 | 0.00 | 88 | 1018.7 |
| 20260510004804 | 48 | 61 | 5.0 | 14.0 | 0.00 | 1.01 | 0.00 | 88 | 1018.7 |
| 20260510004304 | 48 | 47 | 5.0 | 14.0 | 0.00 | 1.01 | 0.00 | 88 | 1018.8 |
| 20260510003802 | 48 | 56 | 5.0 | 15.0 | 0.00 | 1.01 | 0.00 | 88 | 1018.7 |
| 20260510003301 | 48 | 59 | 6.0 | 15.0 | 0.00 | 1.01 | 0.00 | 87 | 1018.8 |
| 20260510002804 | 48 | 49 | 5.0 | 12.0 | 0.00 | 1.01 | 0.00 | 87 | 1018.9 |
| 20260510002259 | 48 | 52 | 4.0 | 14.0 | 0.00 | 1.01 | 0.00 | 87 | 1018.8 |
| 20260510001758 | 48 | 56 | 5.0 | 14.0 | 0.00 | 1.01 | 0.00 | 87 | 1018.8 |
| 20260510001306 | 48 | 45 | 5.0 | 13.0 | 0.00 | 1.01 | 0.00 | 87 | 1018.8 |
| 20260510001233 | 48 | 34 | 6.0 | 13.0 | 0.00 | 1.01 | 0.00 | 86 | 1018.9 |
| 20260510000653 | 48 | 51 | 6.0 | 12.0 | 0.00 | 1.01 | 0.00 | 86 | 1018.9 |
| 20260510000131 | 49 | 39 | 6.0 | 12.0 | 0.00 | 1.01 | 0.00 | 86 | 1018.9 |
| 20260509235258 | 49 | 45 | 6.0 | 12.0 | 0.00 | 1.01 | 0.00 | 86 | 1018.9 |
| 20260509234758 | 49 | 56 | 4.0 | 11.0 | 0.00 | 1.01 | 0.00 | 85 | 1018.9 |
| 20260509234604 | 49 | 58 | 6.0 | 11.0 | 0.00 | 1.01 | 0.00 | 85 | 1019.0 |
| 20260509233759 | 49 | 59 | 4.0 | 11.0 | 0.00 | 1.01 | 0.00 | 84 | 1018.9 |
| 20260509233522 | 49 | 23 | 4.0 | 10.0 | 0.00 | 1.01 | 0.00 | 83 | 1019.0 |
| 20260509233351 | 49 | 351 | 3.0 | 10.0 | 0.00 | 1.01 | 0.00 | 84 | 1019.0 |
| 20260509232300 | 49 | 52 | 5.0 | 12.0 | 0.00 | 1.01 | 0.00 | 82 | 1019.0 |
| 20260509231759 | 49 | 338 | 5.0 | 12.0 | 0.00 | 1.01 | 0.00 | 81 | 1019.0 |
| 20260509231300 | 49 | 32 | 4.0 | 11.0 | 0.00 | 1.01 | 0.00 | 80 | 1018.9 |
| 20260509230758 | 49 | 38 | 5.0 | 11.0 | 0.00 | 1.01 | 0.00 | 79 | 1018.8 |
| 20260509230258 | 49 | 54 | 3.0 | 11.0 | 0.00 | 1.01 | 0.00 | 77 | 1018.9 |
| 20260509225757 | 50 | 27 | 5.0 | 11.0 | 0.00 | 1.01 | 1.01 | 75 | 1018.7 |
| 20260509225256 | 50 | 0 | 5.0 | 10.0 | 0.00 | 1.01 | 1.01 | 73 | 1018.8 |
| 20260509224756 | 50 | 45 | 4.0 | 7.0 | 0.00 | 1.01 | 1.01 | 71 | 1019.0 |
| 20260509224601 | 50 | 39 | 3.0 | 6.0 | 0.00 | 1.01 | 1.01 | 69 | 1019.1 |
| 20260509223756 | 50 | 47 | 2.0 | 10.0 | 0.00 | 1.01 | 1.01 | 68 | 1019.1 |
| 20260509223301 | 51 | 61 | 4.0 | 10.0 | 0.00 | 1.01 | 1.01 | 68 | 1019.0 |
| 20260509222807 | 51 | 49 | 4.0 | 11.0 | 0.00 | 1.01 | 1.01 | 66 | 1019.1 |
| 20260509222306 | 51 | 68 | 5.0 | 11.0 | 0.00 | 1.01 | 1.01 | 65 | 1019.0 |
| 20260509221755 | 51 | 27 | 5.0 | 9.0 | 0.00 | 1.01 | 1.01 | 65 | 1018.9 |
| 20260509221257 | 51 | 48 | 4.0 | 9.0 | 0.00 | 1.01 | 1.01 | 65 | 1018.8 |
| 20260509221130 | 51 | 45 | 4.0 | 10.0 | 0.00 | 1.01 | 1.01 | 65 | 1018.7 |
| 20260509220255 | 51 | 52 | 3.0 | 10.0 | 0.00 | 1.01 | 1.01 | 65 | 1018.7 |
| 20260509215754 | 52 | 41 | 4.0 | 10.0 | 0.00 | 1.01 | 1.01 | 66 | 1018.5 |
| 20260509215254 | 52 | 59 | 2.0 | 9.0 | 0.00 | 1.01 | 1.01 | 66 | 1018.5 |
| 20260509214754 | 52 | 34 | 2.0 | 9.0 | 0.00 | 1.01 | 1.01 | 66 | 1018.4 |
| 20260509214254 | 52 | 13 | 2.0 | 6.0 | 0.00 | 1.01 | 1.01 | 66 | 1018.4 |
| 20260509213754 | 52 | 69 | 1.0 | 2.0 | 0.00 | 1.01 | 1.01 | 65 | 1018.3 |
| 20260509213254 | 53 | 75 | 1.0 | 2.0 | 0.00 | 1.01 | 1.01 | 65 | 1018.3 |
| 20260509212756 | 53 | 75 | 0.0 | 2.0 | 0.00 | 1.01 | 1.01 | 64 | 1018.4 |
| 20260509212721 | 53 | 75 | 1.0 | 3.0 | 0.00 | 1.01 | 1.01 | 64 | 1018.3 |
| 20260509211754 | 53 | 75 | 1.0 | 3.0 | 0.00 | 1.01 | 1.01 | 65 | 1018.2 |
| 20260509211258 | 53 | 76 | 2.0 | 2.0 | 0.00 | 1.01 | 1.01 | 64 | 1018.1 |
| 20260509210801 | 54 | 76 | 0.0 | 3.0 | 0.00 | 1.01 | 1.01 | 63 | 1018.1 |
| 20260509210255 | 54 | 76 | 1.0 | 3.0 | 0.00 | 1.01 | 1.01 | 63 | 1018.0 |
| 20260509205754 | 54 | 76 | 1.0 | 2.0 | 0.00 | 1.01 | 1.01 | 63 | 1018.1 |
| 20260509205253 | 54 | 76 | 1.0 | 3.0 | 0.00 | 1.01 | 1.01 | 63 | 1017.9 |
| 20260509204752 | 55 | 76 | 1.0 | 4.0 | 0.00 | 1.01 | 1.01 | 63 | 1018.0 |
| 20260509204255 | 55 | 76 | 2.0 | 4.0 | 0.00 | 1.01 | 1.01 | 62 | 1017.9 |
| 20260509203752 | 55 | 76 | 1.0 | 4.0 | 0.00 | 1.01 | 1.01 | 62 | 1017.8 |
| 20260509203611 | 55 | 78 | 2.0 | 3.0 | 0.00 | 1.01 | 1.01 | 62 | 1018.0 |
| 20260509202754 | 56 | 76 | 2.0 | 3.0 | 0.00 | 1.01 | 1.01 | 61 | 1017.9 |
| 20260509202255 | 56 | 76 | 2.0 | 3.0 | 0.00 | 1.01 | 1.01 | 61 | 1017.8 |
| 20260509201753 | 56 | 76 | 2.0 | 4.0 | 0.00 | 1.01 | 1.01 | 60 | 1017.7 |
| 20260509201250 | 57 | 76 | 2.0 | 4.0 | 0.00 | 1.01 | 1.01 | 60 | 1017.7 |
| 20260509200750 | 57 | 76 | 2.0 | 4.0 | 0.00 | 1.01 | 1.01 | 59 | 1017.7 |
| 20260509200253 | 57 | 76 | 1.0 | 3.0 | 0.00 | 1.01 | 1.01 | 59 | 1017.6 |
| 20260509195750 | 58 | 80 | 1.0 | 5.0 | 0.00 | 1.01 | 1.01 | 58 | 1017.6 |
| 20260509195250 | 58 | 80 | 1.0 | 5.0 | 0.00 | 1.01 | 1.01 | 58 | 1017.6 |
| 20260509194751 | 59 | 71 | 2.0 | 4.0 | 0.00 | 1.01 | 1.01 | 57 | 1017.6 |
| 20260509194255 | 59 | 96 | 1.0 | 4.0 | 0.00 | 1.01 | 1.01 | 56 | 1017.5 |
| 20260509193748 | 60 | 96 | 1.0 | 4.0 | 0.00 | 1.01 | 1.01 | 55 | 1017.4 |
| 20260509193246 | 60 | 96 | 1.0 | 4.0 | 0.00 | 1.01 | 1.01 | 54 | 1017.3 |
| 20260509192746 | 61 | 96 | 2.0 | 2.0 | 0.00 | 1.01 | 1.01 | 53 | 1017.2 |
| 20260509192251 | 61 | 94 | 1.0 | 4.0 | 0.00 | 1.01 | 1.01 | 53 | 1017.2 |
| 20260509191748 | 61 | 94 | 2.0 | 4.0 | 0.00 | 1.01 | 1.01 | 52 | 1017.2 |
| 20260509191246 | 61 | 93 | 5.0 | 5.0 | 0.00 | 1.01 | 1.01 | 51 | 1017.2 |
| 20260509190747 | 61 | 93 | 5.0 | 5.0 | 0.00 | 1.01 | 1.01 | 51 | 1017.1 |
| 20260509190245 | 62 | 96 | 2.0 | 3.0 | 0.00 | 1.01 | 1.01 | 51 | 1017.0 |
| 20260509185745 | 0 | 78 | 3.0 | 4.0 | 0.00 | 1.01 | 1.01 | 1017.0 | |
| 20260509185246 | 0 | 75 | 3.0 | 7.0 | 0.00 | 1.01 | 1.01 | 1016.9 | |
| 20260509184746 | 0 | 100 | 6.0 | 7.0 | 0.00 | 1.01 | 1.01 | 1017.0 | |
| 20260509184245 | 0 | 107 | 4.0 | 6.0 | 0.00 | 1.01 | 1.01 | 1016.9 | |
| 20260509183738 | 0 | 120 | 4.0 | 4.0 | 0.00 | 1.01 | 1.01 | 1016.8 | |
| 20260509183239 | 63 | 120 | 4.0 | 9.0 | 0.00 | 1.01 | 1.01 | 50 | 1016.7 |
| 20260509182736 | 63 | 109 | 5.0 | 9.0 | 0.00 | 1.01 | 1.01 | 50 | 1016.7 |
| 20260509182614 | 64 | 121 | 6.0 | 6.0 | 0.00 | 1.01 | 1.01 | 50 | 1016.5 |
| 20260509181737 | 64 | 114 | 2.0 | 2.0 | 0.00 | 1.01 | 1.01 | 50 | 1016.6 |
| 20260509181237 | 0 | 114 | 2.0 | 7.0 | 0.00 | 1.01 | 1.01 | 1016.5 | |
| 20260509180732 | 64 | 106 | 7.0 | 7.0 | 0.00 | 1.01 | 1.01 | 50 | 1016.4 |
| 20260509180232 | 64 | 102 | 0.0 | 0.0 | 0.00 | 1.01 | 1.01 | 50 | 1016.5 |
| 20260509175720 | 65 | 102 | 0.0 | 4.0 | 0.00 | 1.01 | 1.01 | 47 | 1016.4 |
| 20260509175219 | 65 | 79 | 2.0 | 4.0 | 0.00 | 1.01 | 1.01 | 47 | 1016.4 |
| 20260509174719 | 65 | 79 | 1.0 | 10.0 | 0.00 | 1.01 | 1.01 | 47 | 1016.5 |
| 20260509174212 | 65 | 89 | 10.0 | 13.0 | 0.00 | 1.01 | 1.01 | 47 | 1016.5 |
| 20260509173708 | 65 | 68 | 11.0 | 13.0 | 0.00 | 1.01 | 1.01 | 47 | 1016.4 |
| 20260509173204 | 66 | 86 | 4.0 | 9.0 | 0.00 | 1.01 | 1.01 | 47 | 1016.4 |
| 20260509172955 | 67 | 0.0 | 0.0 | 0.00 | 1.01 | 1.01 | 47 | 1016.4 | |
| 20260509172206 | 67 | 99 | 6.0 | 6.0 | 0.00 | 1.01 | 1.01 | 47 | 1016.5 |
| 20260509171705 | 67 | 99 | 6.0 | 6.0 | 0.00 | 1.01 | 1.01 | 47 | 1016.4 |
| 20260509171207 | 68 | 58 | 5.0 | 5.0 | 0.00 | 1.01 | 1.01 | 47 | 1016.4 |
| 20260509170703 | 0 | 82 | 7.0 | 10.0 | 0.00 | 1.01 | 1.01 | 1016.4 | |
| 20260509170203 | 0 | 130 | 6.0 | 10.0 | 0.00 | 1.01 | 1.01 | 1016.5 | |
| 20260509165702 | 68 | 61 | 5.0 | 5.0 | 0.00 | 1.01 | 1.01 | 47 | 1016.6 |
| 20260509165453 | 68 | 61 | 5.0 | 6.0 | 0.00 | 1.01 | 1.01 | 47 | 1016.6 |
| 20260509164702 | 68 | 92 | 5.0 | 6.0 | 0.00 | 1.01 | 1.01 | 47 | 1016.6 |
| 20260509164202 | 0 | 49 | 5.0 | 6.0 | 0.00 | 1.01 | 1.01 | 1016.6 | |
| 20260509163702 | 0 | 78 | 4.0 | 6.0 | 0.00 | 1.01 | 1.01 | 1016.5 | |
| 20260509163154 | 0 | 97 | 3.0 | 6.0 | 0.00 | 1.01 | 1.01 | 1016.5 | |
| 20260509162652 | 69 | 68 | 7.0 | 7.0 | 0.00 | 1.01 | 1.01 | 43 | 1016.6 |
| 20260509162151 | 69 | 72 | 6.0 | 7.0 | 0.00 | 1.01 | 1.01 | 43 | 1016.7 |
| 20260509161652 | 70 | 97 | 4.0 | 5.0 | 0.00 | 1.01 | 1.01 | 43 | 1016.6 |
| 20260509161200 | 70 | 99 | 2.0 | 3.0 | 0.00 | 1.01 | 1.01 | 43 | 1016.7 |
| 20260509160649 | 0 | 96 | 2.0 | 5.0 | 0.00 | 1.01 | 1.01 | 1016.7 | |
| 20260509160153 | 0 | 100 | 4.0 | 9.0 | 0.00 | 1.01 | 1.01 | 1016.6 | |
| 20260509155650 | 71 | 63 | 5.0 | 9.0 | 0.00 | 1.01 | 1.01 | 42 | 1016.7 |
| 20260509155150 | 71 | 58 | 4.0 | 4.0 | 0.00 | 1.01 | 1.01 | 42 | 1016.7 |
| 20260509154647 | 0 | 58 | 4.0 | 5.0 | 0.00 | 1.01 | 1.01 | 1016.8 | |
| 20260509154147 | 0 | 87 | 5.0 | 6.0 | 0.00 | 1.01 | 1.01 | 1016.7 | |
| 20260509153649 | 0 | 52 | 5.0 | 6.0 | 0.00 | 1.01 | 1.01 | 1016.8 | |
| 20260509153142 | 71 | 0.0 | 0.0 | 0.00 | 1.01 | 1.01 | 40 | 1016.8 | |
| 20260509152634 | 71 | 62 | 5.0 | 5.0 | 0.00 | 1.01 | 1.01 | 40 | 1016.7 |
| 20260509152437 | 71 | 62 | 5.0 | 5.0 | 0.00 | 1.01 | 1.01 | 40 | 1016.8 |